AZU9356 SBEG-SBRF

Flight info

Callsign AZU9356
Flight time N/A
Altitude 33000
Route SIGEP UP527 KUBTA/N0452F350 UP527 KIMOK
Aircraft E195/M-SDE3GILORVW/S

Departure

Time 2026-04-16 13:46
Airport Eduardo Gomes International Airport (SBEG)

Arrival

Time N/A
Airport Recife/Guararapes - Gilberto Freyre International Airport (SBRF)
Time Latitude Longitude Altitude Speed Heading
2026-04-16 13:30 -3.03274 -60.04623 267 ft 0 kts
2026-04-16 13:38 -3.03275 -60.04623 267 ft 2 kts
2026-04-16 13:38 -3.03291 -60.04623 267 ft 2 kts
2026-04-16 13:38 -3.03308 -60.04624 267 ft 2 kts 360°
2026-04-16 13:38 -3.03324 -60.04623 267 ft 2 kts 350°
2026-04-16 13:39 -3.03340 -60.04618 267 ft 2 kts 327°
2026-04-16 13:39 -3.03352 -60.04607 267 ft 2 kts 288°
2026-04-16 13:39 -3.03355 -60.04591 267 ft 2 kts 273°
2026-04-16 13:39 -3.03355 -60.04582 267 ft 1 kts 270°
2026-04-16 13:40 -3.03355 -60.04581 267 ft 0 kts 270°
2026-04-16 13:41 -3.03355 -60.04585 267 ft 2 kts 269°
2026-04-16 13:41 -3.03356 -60.04604 267 ft 4 kts 269°
2026-04-16 13:41 -3.03356 -60.04641 267 ft 7 kts 269°
2026-04-16 13:41 -3.03356 -60.04698 267 ft 10 kts 269°
2026-04-16 13:42 -3.03371 -60.04770 267 ft 12 kts 242°
2026-04-16 13:42 -3.03425 -60.04840 267 ft 14 kts 221°
2026-04-16 13:42 -3.03506 -60.04902 267 ft 14 kts 219°
2026-04-16 13:42 -3.03568 -60.04980 267 ft 15 kts 241°
2026-04-16 13:43 -3.03593 -60.05067 267 ft 14 kts 252°
2026-04-16 13:43 -3.03624 -60.05167 267 ft 16 kts 255°
2026-04-16 13:43 -3.03655 -60.05279 267 ft 18 kts 255°
2026-04-16 13:43 -3.03682 -60.05406 267 ft 19 kts 263°
2026-04-16 13:44 -3.03690 -60.05547 267 ft 21 kts 269°
2026-04-16 13:44 -3.03691 -60.05696 267 ft 21 kts 270°
2026-04-16 13:44 -3.03691 -60.05842 267 ft 21 kts 270°
2026-04-16 13:44 -3.03691 -60.05986 267 ft 21 kts 270°
2026-04-16 13:45 -3.03702 -60.06128 267 ft 20 kts 246°
2026-04-16 13:45 -3.03817 -60.06171 268 ft 18 kts 162°
2026-04-16 13:45 -3.03857 -60.06049 268 ft 22 kts 90°
2026-04-16 13:45 -3.03858 -60.05754 267 ft 68 kts 90°
2026-04-16 13:46 -3.03859 -60.05109 267 ft 116 kts 90°
2026-04-16 13:46 -3.03860 -60.04160 276 ft 154 kts 90°
2026-04-16 13:46 -3.03854 -60.03061 604 ft 162 kts 91°
2026-04-16 13:46 -3.03897 -60.01856 1019 ft 186 kts 91°
2026-04-16 13:47 -3.03920 -60.00457 1518 ft 215 kts 94°
2026-04-16 13:47 -3.04289 -59.98934 1984 ft 240 kts 111°
2026-04-16 13:47 -3.05001 -59.97336 2543 ft 259 kts 111°
2026-04-16 13:47 -3.05593 -59.95622 3472 ft 263 kts 104°
2026-04-16 13:48 -3.06034 -59.93836 4406 ft 265 kts 102°
2026-04-16 13:48 -3.06440 -59.92034 5358 ft 265 kts 102°
2026-04-16 13:48 -3.06872 -59.90237 6268 ft 268 kts 103°
2026-04-16 13:48 -3.07323 -59.88419 7067 ft 270 kts 103°
2026-04-16 13:49 -3.07781 -59.86580 7834 ft 274 kts 104°
2026-04-16 13:49 -3.08300 -59.84732 8652 ft 276 kts 105°
2026-04-16 13:49 -3.08727 -59.82842 9357 ft 282 kts 102°
2026-04-16 13:49 -3.09204 -59.80921 10171 ft 286 kts 104°
2026-04-16 13:50 -3.09693 -59.78983 10913 ft 290 kts 103°
2026-04-16 13:50 -3.10152 -59.77004 11623 ft 294 kts 103°
2026-04-16 13:50 -3.10620 -59.74995 12331 ft 298 kts 103°
2026-04-16 13:50 -3.11109 -59.72961 13027 ft 303 kts 103°
2026-04-16 13:51 -3.11613 -59.70895 13718 ft 308 kts 103°
2026-04-16 13:51 -3.12128 -59.68799 14392 ft 311 kts 103°
2026-04-16 13:51 -3.12647 -59.66693 15139 ft 312 kts 103°
2026-04-16 13:51 -3.13167 -59.64574 15846 ft 316 kts 103°
2026-04-16 13:52 -3.13695 -59.62429 16517 ft 319 kts 103°
2026-04-16 13:52 -3.14221 -59.60289 17164 ft 323 kts 103°
2026-04-16 13:52 -3.14770 -59.58069 17811 ft 326 kts 103°
2026-04-16 13:52 -3.15308 -59.55884 18391 ft 330 kts 103°
2026-04-16 13:53 -3.15860 -59.53645 18855 ft 337 kts 103°
2026-04-16 13:53 -3.16436 -59.51312 18959 ft 354 kts 104°
2026-04-16 13:53 -3.17037 -59.48884 19297 ft 362 kts 103°
2026-04-16 13:53 -3.17641 -59.46431 19837 ft 365 kts 104°
2026-04-16 13:54 -3.18251 -59.43959 20370 ft 367 kts 104°
2026-04-16 13:54 -3.18865 -59.41475 20888 ft 370 kts 104°
2026-04-16 13:54 -3.19485 -59.38961 21392 ft 373 kts 104°
2026-04-16 13:54 -3.20110 -59.36432 21891 ft 376 kts 104°
2026-04-16 13:55 -3.20738 -59.33891 22385 ft 378 kts 104°
2026-04-16 13:55 -3.21371 -59.31323 22857 ft 381 kts 104°
2026-04-16 13:55 -3.22010 -59.28742 23326 ft 384 kts 104°
2026-04-16 13:55 -3.22653 -59.26134 23747 ft 387 kts 104°
2026-04-16 13:56 -3.23300 -59.23519 24129 ft 389 kts 104°
2026-04-16 13:56 -3.23951 -59.20883 24518 ft 391 kts 104°
2026-04-16 13:56 -3.24604 -59.18238 24890 ft 393 kts 104°
2026-04-16 13:56 -3.25261 -59.15580 25230 ft 395 kts 104°
2026-04-16 13:57 -3.25923 -59.12904 25585 ft 397 kts 104°
2026-04-16 13:57 -3.26587 -59.10217 25926 ft 399 kts 104°
2026-04-16 13:57 -3.27255 -59.07513 26247 ft 401 kts 104°
2026-04-16 13:58 -3.28598 -59.02072 26905 ft 405 kts 104°
2026-04-16 13:58 -3.29175 -58.99346 27211 ft 407 kts 101°
2026-04-16 13:58 -3.29705 -58.96556 27516 ft 409 kts 101°
2026-04-16 13:58 -3.30248 -58.93749 27827 ft 411 kts 101°
2026-04-16 13:59 -3.30803 -58.90936 28130 ft 414 kts 102°
2026-04-16 13:59 -3.31368 -58.88107 28436 ft 416 kts 102°
2026-04-16 13:59 -3.31937 -58.85263 28743 ft 417 kts 102°
2026-04-16 13:59 -3.32510 -58.82409 29006 ft 420 kts 102°
2026-04-16 14:00 -3.33089 -58.79528 29257 ft 423 kts 102°
2026-04-16 14:00 -3.33670 -58.76641 29531 ft 425 kts 102°
2026-04-16 14:00 -3.34253 -58.73740 29774 ft 427 kts 102°
2026-04-16 14:00 -3.34838 -58.70824 30002 ft 429 kts 102°
2026-04-16 14:01 -3.35427 -58.67892 30211 ft 430 kts 102°
2026-04-16 14:01 -3.36019 -58.64946 30415 ft 432 kts 102°
2026-04-16 14:01 -3.36612 -58.61997 30610 ft 433 kts 102°
2026-04-16 14:01 -3.37206 -58.59035 30806 ft 435 kts 102°
2026-04-16 14:02 -3.37802 -58.56065 30984 ft 436 kts 102°
2026-04-16 14:02 -3.38400 -58.53083 31174 ft 438 kts 102°
2026-04-16 14:02 -3.39000 -58.50096 31359 ft 439 kts 102°
2026-04-16 14:02 -3.39602 -58.47091 31538 ft 441 kts 102°
2026-04-16 14:03 -3.40207 -58.44077 31723 ft 442 kts 102°
2026-04-16 14:03 -3.40805 -58.41093 31895 ft 444 kts 102°
2026-04-16 14:03 -3.41421 -58.38020 32075 ft 446 kts 102°
2026-04-16 14:03 -3.42023 -58.35015 32278 ft 446 kts 102°
2026-04-16 14:04 -3.42634 -58.31973 32529 ft 446 kts 102°
2026-04-16 14:04 -3.43243 -58.28933 32772 ft 445 kts 102°
2026-04-16 14:04 -3.43849 -58.25904 33116 ft 443 kts 102°
2026-04-16 14:04 -3.44459 -58.22862 33080 ft 449 kts 102°
2026-04-16 14:05 -3.45705 -58.16641 32944 ft 463 kts 102°
2026-04-16 14:05 -3.46979 -58.10278 32954 ft 469 kts 102°
2026-04-16 14:06 -3.48260 -58.03871 32961 ft 469 kts 102°
2026-04-16 14:06 -3.49541 -57.97464 32961 ft 470 kts 102°
2026-04-16 14:07 -3.50824 -57.91052 32965 ft 470 kts 102°